Location: Dos Palmas
(32.4468°N, 116.8732°W)
Time: 23:35:57
(UTC+00:00)

FALCON 9 DEB - Visible Passes

Search period start: 23 October 2021 00:00
Search period end: 02 November 2021 00:00
Orbit: 353 x 365 km, 53.0° (Epoch: 23 October)

Date Brightness Start Highest point End Pass type
(mag) Time Alt. Az. Time Alt. Az. Time Alt. Az.
23 Oct 4.5 02:42:54 10° SW 02:44:25 27° SSW 02:44:25 27° SSW visible
24 Oct 4.6 01:37:29 10° S 01:39:28 17° SE 01:41:10 11° E visible
24 Oct 6.0 03:12:11 10° W 03:12:57 15° W 03:12:57 15° W visible
25 Oct 2.6 02:05:04 10° SW 02:08:01 89° WNW 02:09:32 26° NE visible
26 Oct 5.0 02:34:33 10° W 02:36:48 19° NW 02:37:41 17° NNW visible
27 Oct 3.0 01:27:03 10° SW 01:30:00 66° NW 01:32:56 10° NE visible
28 Oct 5.4 01:56:44 10° W 01:58:42 16° NW 02:00:41 10° N visible
